Location: Unspecified
(0.0000°N, 0.0000°E)
Time: 22:52:25
(UTC+00:00)

Hubble Space Telescope - Pass Details

Date: 20 February 2020
Orbit: 536 x 540 km, 28.5° (Epoch: 26 February)

Event Time Altitude Azimuth Distance (km) Brightness Sun altitude
Exits shadow 05:17:51 11° 233° (SW) 1,723 3.0 -13.7°
Maximum altitude 05:19:32 13° 207° (SSW) 1,584 3.0 -13.3°
Drops below altitude 10° 05:21:32 10° 178° (S) 1,781 3.6 -12.8°
Sets 05:24:52 0° 150° (SSE) 2,672 5.0 -12.0°
